User: anonymous
Location: Unspecified
(0.0000°N, 0.0000°E)
Time: 18:25:39
(UTC+02:00)
Language:

ARIANE 5 R/B - Orbit

View from above orbital plane
View from above orbital plane
View from above satellite
View from above satellite

Ground track
Ground track

The orbit data is extracted from the following two-line orbital elements,

1 27510U 02040C   14209.35821230 -.00000202  00000-0 -32654-3 0   283
2 27510 005.0871 261.0155 7165654 245.2108 110.0419 02.27176929 98912
Epoch (UTC): 28 July 2014 08:35:49
Eccentricity: 0.7165654
inclination: 5.0871°
perigee height: 550 km
apogee height: 35580 km
right ascension of ascending node: 261.0155°
argument of perigee: 245.2108°
revolutions per day: 2.27176929
mean anomaly at epoch: 110.0419°
orbit number at epoch: 9891

The dashed part of the orbit path shows where the satellite is in the earth's shadow,  

DLR